Location: Avebury
(53.1487°N, 106.9774°W)
Time: 14:13:29
(UTC+00:00)

Envisat - Pass Details

Date: 23 January 2022
Orbit: 764 x 765 km, 98.2° (Epoch: 22 May)

Event Time Altitude Azimuth Distance (km) Brightness Sun altitude
Rises 12:47:02 0° 12° (NNE) 3,244 6.3 -20.2°
Reaches altitude 10° 12:49:22 10° 8° (N) 2,314 5.5 -19.9°
Maximum altitude 12:54:21 57° 292° (WNW) 906 3.0 -19.2°
Drops below altitude 10° 12:59:18 10° 215° (SW) 2,299 5.2 -18.4°
Sets 13:01:37 0° 211° (SSW) 3,221 6.0 -18.1°
